OKEAN-0
1 25860U 99039A 11216.90880154 .00000122 00000-0 26096-4 0 3780
2 25860 097.8889 182.0252 0001057 107.7427 252.3897 14.73811044647830
NOAA-16
1 26536U 00055A 11215.74487709 -.00000168 00000-0 -65455-4 0 03886
2 26536 099.1368 247.2475 0009710 258.7558 101.2525 14.12633764560079
NOAA-17
1 27453U 02032A 11215.73584762 .00000026 00000-0 29058-4 0 03754
2 27453 098.3761 253.2570 0011982 015.2366 344.9174 14.24297316473426
NOAA-18
1 28654U 05018A 11215.66474441 -.00000106 00000-0 -33413-4 0 08542
2 28654 098.9992 166.9366 0014185 335.2604 024.7888 14.11496687319627
NOAA-19
1 33591U 09005A 11215.74338226 .00000447 00000-0 27169-3 0 00455
2 33591 098.8277 155.1023 0013680 198.5868 161.4812 14.11190650128095
HUBBLE
1 20580U 90037B 11215.04801577 .00000741 00000-0 43304-4 0 8119
2 20580 028.4710 070.3193 0003627 254.6533 105.3631 15.01440311966705
ISS
1 25544U 98067A 11216.87561343 .00024887 00000-0 30324-3 0 8339
2 25544 051.6390 275.6758 0013255 039.1664 297.2604 15.60250576728500
CO-58
1 28895U 05043F 11215.62378121 .00000292 00000-0 69728-4 0 09409
2 28895 097.9593 090.1626 0019049 073.3431 286.9900 14.60141446307166
FALCON
1 30776U 07006E 11215.94874055 .00001227 00000-0 88162-4 0 01441
2 30776 035.4333 056.5313 0000341 038.6331 321.4410 15.04793003242242
MAST
1 31126U 07012K 11215.93980739 .00000284 00000-0 73969-4 0 02323
2 31126 097.8947 240.4637 0095042 022.7325 337.8036 14.53780050228023
CAPE1
1 31130U 07012P 11215.97047944 .00000219 00000-0 60575-4 0 02411
2 31130 097.8953 237.1867 0103069 033.4863 327.2789 14.52432433227573
COMPASS
1 32787U 08021E 11215.66016561 .00000513 00000-0 70311-4 0 00568
2 32787 097.8455 278.5871 0016318 025.0844 335.1160 14.82519063176593
AAUSAT2
1 32788U 08021F 11215.61779487 .00001396 00000-0 17913-3 0 00464
2 32788 097.8433 278.7833 0015886 025.6559 334.5485 14.82715395176609
DO-64
1 32789U 08021G 11215.74633372 .00001553 00000-0 19617-3 0 00627
2 32789 097.8535 280.0085 0015809 023.6957 336.4979 14.83236136176637
CO-66
1 32791U 08021J 11216.83463608 .00000563 00000-0 77122-4 0 507
2 32791 097.8446 279.6644 0016510 020.7766 339.4086 14.82198304176716
RS-30
1 32953U 08025A 11216.68221980 .00000010 00000-0 00000 0 0 9646
2 32953 082.5041 132.5817 0017795 284.4073 075.5028 12.43014353145113
TACSAT-3
1 35001U 09028A 11215.48647718 .00012430 00000-0 21591-3 0 06733
2 35001 040.4530 245.2163 0021367 207.0918 152.8785 15.50303064124422
PHARMSAT
1 35002U 09028B 11215.46981042 .00010168 00000-0 18138-3 0 06237
2 35002 040.4691 243.3668 0022812 213.9177 146.0183 15.49660152124440
HAWKSAT1
1 35003U 09028C 11215.38782880 .00081698 00000-0 59373-3 0 07118
2 35003 040.4517 206.3288 0018717 228.4582 131.4636 15.72068429124845
CP6
1 35004U 09028D 11215.31599524 .00199582 00000-0 79532-3 0 07136
2 35004 040.4490 193.7819 0017616 222.6228 137.3253 15.84980464124963
METEOR-M
1 35865U 09049A 11216.77784874 .00000176 00000-0 10000-3 0 6098
2 35865 098.7036 271.2685 0001666 262.9906 097.1061 14.21840814 97492
RS-38
1 35869U 09049E 11216.77190737 .00000177 00000-0 10000-3 0 5990
2 35869 098.6992 271.2949 0003878 254.6504 105.4204 14.22017859 97508
